Hourly Data Report for January 07, 2003

TORONTO CITY
ONTARIO

43°40'00.000" N
79°24'00.000" W
112.50 m
6158355
71508
XTO

Download Data

Hourly Data (January 2003)
Hourly Data Report for January 7, 2003
TIME
LST
Temp Definition
°C
Dew Point Definition
°C
Rel Hum Definition
%
Precip. Amount Definition
mm

Wind Dir Definition
10's deg

Wind Spd Definition
km/h
Visibility Definition
km
Stn Press Definition
kPa
Hmdx Definition


Wind Chill Definition


Weather Definition


00:00 -10.1 -15.0 67     0 LegendMM 100.68     LegendNANA
01:00
02:00 -11.3 -15.1 73     0 LegendMM 100.66     LegendNANA
03:00 -11.4 -14.2 80     0 LegendMM 100.62     LegendNANA
04:00 -11.7 -14.4 80     0 LegendMM 100.55     LegendNANA
05:00 -11.4 -14.4 78     0 LegendMM 100.53     LegendNANA
06:00 -10.2 -12.9 81     0 LegendMM 100.44     LegendNANA
07:00 -8.5 -11.4 80     0 LegendMM 100.37     LegendNANA
08:00 -7.3 -10.1 80     0 LegendMM 100.24     LegendNANA
09:00
10:00 -5.2 -9.4 72     0 LegendMM 99.92     LegendNANA
11:00 -3.8 -7.5 75     0 LegendMM 99.72     LegendNANA
12:00 -3.0 -6.5 77     0 LegendMM 99.50     LegendNANA
13:00 -1.3 -4.9 76     0 LegendMM 99.25     LegendNANA
14:00 -0.6 -4.4 75     0 LegendMM 98.99     LegendNANA
15:00 -0.7 -3.8 79     0 LegendMM 98.90     LegendNANA
16:00 -1.2 -3.5 84     0 LegendMM 98.70     LegendNANA
17:00 -1.1 -3.5 84     0 LegendMM 98.70     LegendNANA
18:00 -0.8 -3.9 79     0 LegendMM 98.59     LegendNANA
19:00 -0.5 -3.6 80     0 LegendMM 98.44     LegendNANA
20:00 -0.6 -3.2 83     0 LegendMM 98.40     LegendNANA
21:00 -0.7 -2.4 88     0 LegendMM 98.26     LegendNANA
22:00 -0.5 -1.7 92     0 LegendMM 98.08     LegendNANA
23:00 0.0 -1.2 92     0 LegendMM 98.01     LegendNANA

Notes on Data Quality.

Legend

  • E = Estimated
  • M = Missing
  • NA = Not Available*
  • [empty] = Indicates an unobserved value
Date modified: